TAP34CC LPPT-LEMG

Flight info

Callsign TAP34CC
Flight time 0h 49m
Altitude 39000
Route DUZOP DCT MINTA DCT OSLEP DCT NAPES DCT ONUBA DCT PIMUR DCT SVL
Aircraft A319/M-SDE3FGHIRWY/LB1

Departure

Time 2026-05-06 15:15
Airport Lisbon Humberto Delgado Airport (LPPT)

Arrival

Time 2026-05-06 16:05
Airport Málaga-Costa del Sol Airport (LEMG)
Time Latitude Longitude Altitude Speed Heading
2026-05-06 14:37 38.76983 -9.13077 337 ft 0 kts 79°
2026-05-06 15:04 38.76982 -9.13079 337 ft 1 kts 79°
2026-05-06 15:04 38.76978 -9.13110 336 ft 4 kts 79°
2026-05-06 15:04 38.76974 -9.13137 333 ft 4 kts 89°
2026-05-06 15:05 38.76981 -9.13165 335 ft 4 kts 160°
2026-05-06 15:05 38.77002 -9.13171 337 ft 1 kts 168°
2026-05-06 15:05 38.77003 -9.13171 337 ft 0 kts 168°
2026-05-06 15:08 38.77001 -9.13171 338 ft 1 kts 168°
2026-05-06 15:08 38.76988 -9.13168 335 ft 2 kts 169°
2026-05-06 15:08 38.76964 -9.13162 339 ft 4 kts 169°
2026-05-06 15:09 38.76946 -9.13158 339 ft 1 kts 169°
2026-05-06 15:09 38.76943 -9.13157 339 ft 0 kts 169°
2026-05-06 15:09 38.76939 -9.13156 339 ft 2 kts 170°
2026-05-06 15:10 38.76901 -9.13147 339 ft 9 kts 168°
2026-05-06 15:10 38.76836 -9.13129 337 ft 10 kts 169°
2026-05-06 15:10 38.76786 -9.13146 338 ft 7 kts 230°
2026-05-06 15:10 38.76773 -9.13207 335 ft 7 kts 258°
2026-05-06 15:11 38.76762 -9.13275 341 ft 8 kts 258°
2026-05-06 15:11 38.76748 -9.13354 343 ft 10 kts 252°
2026-05-06 15:11 38.76699 -9.13424 347 ft 11 kts 213°
2026-05-06 15:11 38.76652 -9.13494 351 ft 11 kts 256°
2026-05-06 15:12 38.76634 -9.13610 345 ft 16 kts 258°
2026-05-06 15:12 38.76606 -9.13781 346 ft 23 kts 258°
2026-05-06 15:12 38.76566 -9.13993 353 ft 23 kts 242°
2026-05-06 15:12 38.76496 -9.14136 352 ft 19 kts 261°
2026-05-06 15:13 38.76529 -9.14277 336 ft 10 kts 293°
2026-05-06 15:13 38.76537 -9.14301 336 ft 0 kts 293°
2026-05-06 15:13 38.76546 -9.14328 335 ft 7 kts 292°
2026-05-06 15:13 38.76578 -9.14409 333 ft 8 kts 317°
2026-05-06 15:14 38.76623 -9.14400 334 ft 1 kts 24°
2026-05-06 15:14 38.76624 -9.14400 334 ft 0 kts 24°
2026-05-06 15:14 38.76624 -9.14399 334 ft 0 kts 24°
2026-05-06 15:15 38.76691 -9.14362 336 ft 40 kts 22°
2026-05-06 15:15 38.77188 -9.14097 358 ft 112 kts 22°
2026-05-06 15:15 38.78084 -9.13623 447 ft 157 kts 17°
2026-05-06 15:15 38.79108 -9.13058 1039 ft 163 kts 20°
2026-05-06 15:16 38.80159 -9.12461 1767 ft 169 kts 19°
2026-05-06 15:16 38.81280 -9.11827 2322 ft 186 kts 18°
2026-05-06 15:16 38.82504 -9.10998 2813 ft 213 kts 30°
2026-05-06 15:16 38.83776 -9.09903 3435 ft 233 kts 30°
2026-05-06 15:17 38.85063 -9.08487 4149 ft 257 kts 51°
2026-05-06 15:17 38.85789 -9.06343 5023 ft 272 kts 79°
2026-05-06 15:17 38.85522 -9.03920 5964 ft 282 kts 115°
2026-05-06 15:17 38.84226 -9.02052 6923 ft 289 kts 147°
2026-05-06 15:18 38.82364 -9.01096 7910 ft 290 kts 161°
2026-05-06 15:18 38.80582 -8.99879 8898 ft 293 kts 142°
2026-05-06 15:18 38.79002 -8.98225 9931 ft 294 kts 140°
2026-05-06 15:18 38.77405 -8.96533 10652 ft 305 kts 141°
2026-05-06 15:19 38.75707 -8.94778 11194 ft 322 kts 142°
2026-05-06 15:19 38.73897 -8.92950 11614 ft 341 kts 143°
2026-05-06 15:19 38.71976 -8.91052 12193 ft 353 kts 144°
2026-05-06 15:19 38.70004 -8.89141 12961 ft 358 kts 144°
2026-05-06 15:20 38.67986 -8.87228 13738 ft 363 kts 146°
2026-05-06 15:20 38.65928 -8.85329 14454 ft 367 kts 146°
2026-05-06 15:20 38.63829 -8.83443 15186 ft 370 kts 147°
2026-05-06 15:20 38.61702 -8.81586 15942 ft 371 kts 148°
2026-05-06 15:21 38.59549 -8.79755 16725 ft 372 kts 149°
2026-05-06 15:21 38.57368 -8.77952 17536 ft 373 kts 149°
2026-05-06 15:21 38.55175 -8.76187 18357 ft 373 kts 150°
2026-05-06 15:21 38.52966 -8.74458 19091 ft 372 kts 151°
2026-05-06 15:22 38.50742 -8.72767 19849 ft 371 kts 152°
2026-05-06 15:22 38.48510 -8.71117 20623 ft 370 kts 153°
2026-05-06 15:22 38.46271 -8.69509 21420 ft 368 kts 153°
2026-05-06 15:22 38.44040 -8.67916 22238 ft 366 kts 152°
2026-05-06 15:23 38.41955 -8.66052 22601 ft 383 kts 137°
2026-05-06 15:23 38.40237 -8.63349 22742 ft 401 kts 129°
2026-05-06 15:23 38.38524 -8.60458 22946 ft 414 kts 129°
2026-05-06 15:23 38.36773 -8.57506 23384 ft 421 kts 129°
2026-05-06 15:24 38.34845 -8.54707 23800 ft 421 kts 142°
2026-05-06 15:24 38.32541 -8.52396 24232 ft 423 kts 145°
2026-05-06 15:24 38.30194 -8.50110 24670 ft 426 kts 146°
2026-05-06 15:24 38.27830 -8.47821 25087 ft 429 kts 146°
2026-05-06 15:25 38.25443 -8.45517 25506 ft 432 kts 146°
2026-05-06 15:25 38.23040 -8.43198 25925 ft 435 kts 146°
2026-05-06 15:25 38.20623 -8.40859 26347 ft 438 kts 146°
2026-05-06 15:25 38.18188 -8.38500 26754 ft 442 kts 146°
2026-05-06 15:26 38.15738 -8.36127 27149 ft 445 kts 146°
2026-05-06 15:26 38.13266 -8.33738 27557 ft 448 kts 146°
2026-05-06 15:26 38.10782 -8.31339 27949 ft 451 kts 146°
2026-05-06 15:26 38.08278 -8.28921 28337 ft 454 kts 146°
2026-05-06 15:27 38.05761 -8.26492 28705 ft 457 kts 146°
2026-05-06 15:27 38.03222 -8.24046 29074 ft 459 kts 146°
2026-05-06 15:27 38.00667 -8.21589 29437 ft 462 kts 146°
2026-05-06 15:27 37.98097 -8.19115 29779 ft 465 kts 146°
2026-05-06 15:28 37.95520 -8.16627 30100 ft 468 kts 146°
2026-05-06 15:28 37.92923 -8.14124 30377 ft 471 kts 146°
2026-05-06 15:28 37.90309 -8.11612 30643 ft 473 kts 146°
2026-05-06 15:28 37.87687 -8.09093 31037 ft 473 kts 146°
2026-05-06 15:29 37.85069 -8.06580 31437 ft 472 kts 146°
2026-05-06 15:29 37.82451 -8.04075 31844 ft 472 kts 146°
2026-05-06 15:29 37.79829 -8.01573 32220 ft 472 kts 146°
2026-05-06 15:29 37.77211 -7.99076 32598 ft 472 kts 146°
2026-05-06 15:30 37.74595 -7.96580 32986 ft 472 kts 146°
2026-05-06 15:30 37.71978 -7.94086 33377 ft 472 kts 146°
2026-05-06 15:30 37.69390 -7.91624 33775 ft 471 kts 146°
2026-05-06 15:30 37.66736 -7.89101 34134 ft 471 kts 146°
2026-05-06 15:31 37.64150 -7.86641 34463 ft 471 kts 146°
2026-05-06 15:31 37.61535 -7.84155 34795 ft 472 kts 146°
2026-05-06 15:31 37.58913 -7.81665 34894 ft 471 kts 146°
2026-05-06 15:32 37.51070 -7.74228 34914 ft 470 kts 146°
2026-05-06 15:32 37.45843 -7.69289 34913 ft 469 kts 146°
2026-05-06 15:33 37.40619 -7.64368 34913 ft 469 kts 146°
2026-05-06 15:33 37.35399 -7.59442 34911 ft 469 kts 146°
2026-05-06 15:34 37.30187 -7.54537 34917 ft 469 kts 147°
2026-05-06 15:34 37.25649 -7.50277 34918 ft 468 kts 147°
2026-05-06 15:35 37.20444 -7.45360 34918 ft 469 kts 143°
2026-05-06 15:35 37.18169 -7.42414 34919 ft 474 kts 130°
2026-05-06 15:35 37.16415 -7.38894 34920 ft 479 kts 117°
2026-05-06 15:36 37.15292 -7.34953 34920 ft 483 kts 104°
2026-05-06 15:36 37.14869 -7.30779 34920 ft 485 kts 91°
2026-05-06 15:36 37.15164 -7.26561 34923 ft 487 kts 78°
2026-05-06 15:36 37.15937 -7.22433 34918 ft 488 kts 76°
2026-05-06 15:37 37.17517 -7.14154 34920 ft 488 kts 77°
2026-05-06 15:37 37.19079 -7.05858 34923 ft 489 kts 77°
2026-05-06 15:38 37.20642 -6.97547 34914 ft 490 kts 77°
2026-05-06 15:38 37.22202 -6.89221 34916 ft 491 kts 77°
2026-05-06 15:39 37.23760 -6.80872 34914 ft 492 kts 77°
2026-05-06 15:39 37.25325 -6.72519 34915 ft 492 kts 77°
2026-05-06 15:40 37.26880 -6.64149 34912 ft 493 kts 78°
2026-05-06 15:40 37.28426 -6.55766 34910 ft 493 kts 78°
2026-05-06 15:41 37.29961 -6.47364 34905 ft 494 kts 78°
2026-05-06 15:41 37.31447 -6.39235 34805 ft 493 kts 78°
2026-05-06 15:42 37.32219 -6.35033 34483 ft 493 kts 78°
2026-05-06 15:42 37.32986 -6.30831 34245 ft 494 kts 78°
2026-05-06 15:42 37.33751 -6.26610 34010 ft 495 kts 79°
2026-05-06 15:42 37.34511 -6.22393 33751 ft 495 kts 79°
2026-05-06 15:43 37.35271 -6.18167 33477 ft 496 kts 79°
2026-05-06 15:43 37.36031 -6.13940 32541 ft 500 kts 79°
2026-05-06 15:43 37.36804 -6.09650 31492 ft 505 kts 79°
2026-05-06 15:43 37.37581 -6.05328 30393 ft 510 kts 79°
2026-05-06 15:44 37.38362 -6.00957 29363 ft 512 kts 79°
2026-05-06 15:44 37.39119 -5.96709 29103 ft 496 kts 79°
2026-05-06 15:44 37.39873 -5.92494 28310 ft 492 kts 79°
2026-05-06 15:44 37.40608 -5.88314 27539 ft 487 kts 81°
2026-05-06 15:45 37.40902 -5.84114 26787 ft 479 kts 94°
2026-05-06 15:45 37.40516 -5.80005 26051 ft 469 kts 106°
2026-05-06 15:45 37.39507 -5.76156 25380 ft 458 kts 118°
2026-05-06 15:45 37.37962 -5.72705 24739 ft 447 kts 129°
2026-05-06 15:46 37.35982 -5.69757 24101 ft 437 kts 140°
2026-05-06 15:46 37.33683 -5.67345 23493 ft 428 kts 146°
2026-05-06 15:46 37.31335 -5.65060 22822 ft 424 kts 146°
2026-05-06 15:46 37.29026 -5.62803 22272 ft 417 kts 146°
2026-05-06 15:47 37.26753 -5.60576 21718 ft 413 kts 146°
2026-05-06 15:47 37.24499 -5.58373 21167 ft 409 kts 146°
2026-05-06 15:47 37.22262 -5.56196 20648 ft 405 kts 146°
2026-05-06 15:47 37.20035 -5.54038 20150 ft 402 kts 145°
2026-05-06 15:48 37.17832 -5.51902 19660 ft 399 kts 145°
2026-05-06 15:48 37.15675 -5.49721 19174 ft 398 kts 139°
2026-05-06 15:48 37.13971 -5.46990 18717 ft 400 kts 121°
2026-05-06 15:48 37.12989 -5.43743 18257 ft 401 kts 103°
2026-05-06 15:49 37.12841 -5.40276 17741 ft 400 kts 84°
2026-05-06 15:49 37.13296 -5.36848 17203 ft 397 kts 80°
2026-05-06 15:49 37.13787 -5.33457 16691 ft 394 kts 80°
2026-05-06 15:49 37.14273 -5.30097 16190 ft 390 kts 81°
2026-05-06 15:50 37.14751 -5.26768 15692 ft 387 kts 81°
2026-05-06 15:50 37.15224 -5.23468 15206 ft 383 kts 81°
2026-05-06 15:50 37.15689 -5.20197 14722 ft 379 kts 81°
2026-05-06 15:50 37.16149 -5.16958 14239 ft 376 kts 81°
2026-05-06 15:51 37.16603 -5.13743 13759 ft 373 kts 81°
2026-05-06 15:51 37.17049 -5.10566 13403 ft 365 kts 81°
2026-05-06 15:51 37.17481 -5.07476 13138 ft 355 kts 81°
2026-05-06 15:51 37.17902 -5.04469 12875 ft 346 kts 81°
2026-05-06 15:52 37.18314 -5.01534 12612 ft 338 kts 81°
2026-05-06 15:52 37.18714 -4.98662 12357 ft 331 kts 81°
2026-05-06 15:52 37.19106 -4.95850 12100 ft 325 kts 81°
2026-05-06 15:52 37.19492 -4.93085 11846 ft 319 kts 81°
2026-05-06 15:53 37.19822 -4.90367 11592 ft 312 kts 88°
2026-05-06 15:53 37.19854 -4.87669 11344 ft 307 kts 90°
2026-05-06 15:53 37.19872 -4.85016 11094 ft 302 kts 91°
2026-05-06 15:53 37.19467 -4.82494 10846 ft 293 kts 119°
2026-05-06 15:54 37.18662 -4.81171 10682 ft 287 kts 141°
2026-05-06 15:54 37.16907 -4.80140 10445 ft 278 kts 174°
2026-05-06 15:54 37.14990 -4.80065 10204 ft 275 kts 181°
2026-05-06 15:54 37.13093 -4.80078 9957 ft 271 kts 181°
2026-05-06 15:55 37.11227 -4.80089 9837 ft 264 kts 181°
2026-05-06 15:55 37.09418 -4.80091 9703 ft 256 kts 181°
2026-05-06 15:55 37.07663 -4.80086 9526 ft 250 kts 181°
2026-05-06 15:55 37.05929 -4.80076 9237 ft 248 kts 181°
2026-05-06 15:56 37.04212 -4.80060 8925 ft 246 kts 181°
2026-05-06 15:56 37.02501 -4.80041 8599 ft 245 kts 181°
2026-05-06 15:56 37.00800 -4.80020 8288 ft 245 kts 181°
2026-05-06 15:56 36.99093 -4.80000 7972 ft 245 kts 180°
2026-05-06 15:57 36.97386 -4.79981 7646 ft 245 kts 181°
2026-05-06 15:57 36.95679 -4.79964 7327 ft 245 kts 181°
2026-05-06 15:57 36.93978 -4.79944 7009 ft 244 kts 179°
2026-05-06 15:57 36.92310 -4.79554 6690 ft 245 kts 162°
2026-05-06 15:58 36.90701 -4.78844 6379 ft 246 kts 161°
2026-05-06 15:58 36.89086 -4.78143 6047 ft 245 kts 161°
2026-05-06 15:58 36.87477 -4.77446 5717 ft 244 kts 161°
2026-05-06 15:58 36.85944 -4.76548 5412 ft 243 kts 151°
2026-05-06 15:59 36.84467 -4.75537 5173 ft 240 kts 152°
2026-05-06 15:59 36.83033 -4.74571 5036 ft 229 kts 152°
2026-05-06 15:59 36.81656 -4.73649 4918 ft 219 kts 152°
2026-05-06 15:59 36.80353 -4.72776 4750 ft 208 kts 152°
2026-05-06 16:00 36.79080 -4.71923 4348 ft 207 kts 152°
2026-05-06 16:00 36.77846 -4.71004 3892 ft 209 kts 140°
2026-05-06 16:00 36.76964 -4.69552 3419 ft 212 kts 117°
2026-05-06 16:00 36.76294 -4.67937 3100 ft 207 kts 118°
2026-05-06 16:01 36.75638 -4.66367 2795 ft 200 kts 118°
2026-05-06 16:01 36.75007 -4.64860 2539 ft 190 kts 118°
2026-05-06 16:01 36.74419 -4.63453 2309 ft 176 kts 118°
2026-05-06 16:01 36.73870 -4.62145 2089 ft 164 kts 119°
2026-05-06 16:02 36.73349 -4.60921 1877 ft 155 kts 118°
2026-05-06 16:02 36.72869 -4.59762 1687 ft 147 kts 118°
2026-05-06 16:02 36.72406 -4.58653 1444 ft 141 kts 120°
2026-05-06 16:02 36.71953 -4.57593 1230 ft 136 kts 118°
2026-05-06 16:03 36.71516 -4.56552 1026 ft 134 kts 118°
2026-05-06 16:03 36.71082 -4.55525 862 ft 134 kts 118°
2026-05-06 16:03 36.70662 -4.54508 699 ft 130 kts 118°
2026-05-06 16:03 36.70249 -4.53502 570 ft 129 kts 118°
2026-05-06 16:04 36.69825 -4.52501 408 ft 132 kts 119°
2026-05-06 16:04 36.69400 -4.51502 229 ft 130 kts 119°
2026-05-06 16:04 36.68988 -4.50508 62 ft 127 kts 119°
2026-05-06 16:04 36.68632 -4.49659 46 ft 89 kts 117°
2026-05-06 16:05 36.68423 -4.49164 47 ft 40 kts 118°
2026-05-06 16:05 36.68328 -4.48994 44 ft 21 kts 134°
2026-05-06 16:05 36.68211 -4.48882 38 ft 22 kts 148°
2026-05-06 16:05 36.68142 -4.48843 39 ft 1 kts 171°
2026-05-06 16:06 36.68131 -4.48841 39 ft 2 kts 171°
2026-05-06 16:06 36.68124 -4.48847 40 ft 1 kts 219°
2026-05-06 16:06 36.68122 -4.48876 40 ft 8 kts 276°
2026-05-06 16:06 36.68159 -4.48972 40 ft 14 kts 298°
2026-05-06 16:07 36.68204 -4.49077 40 ft 14 kts 297°
2026-05-06 16:07 36.68249 -4.49184 38 ft 14 kts 297°
2026-05-06 16:07 36.68279 -4.49300 41 ft 14 kts 262°
2026-05-06 16:07 36.68213 -4.49394 41 ft 15 kts 221°
2026-05-06 16:08 36.68137 -4.49478 42 ft 15 kts 221°
2026-05-06 16:08 36.68056 -4.49568 42 ft 16 kts 222°
2026-05-06 16:08 36.67970 -4.49663 42 ft 17 kts 221°
2026-05-06 16:08 36.67887 -4.49756 42 ft 15 kts 223°
2026-05-06 16:09 36.67819 -4.49834 42 ft 12 kts 220°
2026-05-06 16:09 36.67755 -4.49843 41 ft 9 kts 143°
2026-05-06 16:09 36.67709 -4.49781 42 ft 10 kts 133°
2026-05-06 16:09 36.67658 -4.49710 42 ft 12 kts 131°
2026-05-06 16:10 36.67602 -4.49630 42 ft 13 kts 130°
2026-05-06 16:10 36.67540 -4.49543 42 ft 13 kts 132°
2026-05-06 16:10 36.67516 -4.49475 42 ft 7 kts 69°
2026-05-06 16:10 36.67547 -4.49438 42 ft 6 kts 46°
2026-05-06 16:11 36.67567 -4.49401 42 ft 5 kts 56°
2026-05-06 16:11 36.67561 -4.49359 42 ft 6 kts 115°
2026-05-06 16:11 36.67545 -4.49317 39 ft 0 kts 115°